2022/10/19 23:31:56+0000,-34.99,-46.50,-34.35,-47.04,-49.30,-45.47
2022/10/19 23:32:48+0000,-34.99,-47.68,-33.78,-48.64,-49.30,-45.83
2022/10/19 23:33:40+0000,-34.67,-46.39,-34.11,-47.74,-49.06,-45.23
2022/10/19 23:34:32+0000,-35.67,-46.15,-34.13,-47.47,-49.04,-46.45
2022/10/19 23:35:24+0000,-34.74,-45.72,-33.98,-47.16,-47.70,-44.47
2022/10/19 23:36:17+0000,-35.34,-46.47,-33.82,-46.12,-50.43,-45.91
2022/10/19 23:37:09+0000,-35.35,-44.96,-33.99,-47.59,-47.99,-43.04
2022/10/19 23:38:01+0000,-35.72,-45.31,-33.40,-47.06,-48.05,-44.15
2022/10/19 23:38:53+0000,-35.19,-45.63,-33.95,-47.24,-50.01,-44.62
2022/10/19 23:39:45+0000,-35.54,-45.39,-34.48,-48.15,-50.01,-48.61
2022/10/19 23:40:37+0000,-34.90,-46.70,-33.42,-47.93,-50.11,-49.32
2022/10/19 23:41:36+0000,-34.75,-46.45,-34.14,-48.52,-50.64,-48.89
2022/10/19 23:42:28+0000,-35.34,-45.91,-33.91,-46.98,-50.53,-48.82
2022/10/19 23:43:20+0000,-34.79,-46.52,-34.00,-48.04,-49.23,-48.22
2022/10/19 23:44:13+0000,-35.56,-46.26,-33.61,-48.07,-47.21,-46.34
2022/10/19 23:45:05+0000,-35.44,-45.25,-33.93,-48.94,-51.05,-50.45
2022/10/19 23:45:57+0000,-35.30,-46.86,-33.50,-47.48,-50.88,-50.93
2022/10/19 23:46:49+0000,-35.32,-47.06,-33.96,-48.31,-50.46,-50.16
2022/10/19 23:47:41+0000,-35.73,-45.74,-33.94,-48.15,-52.50,-49.76
2022/10/19 23:48:33+0000,-34.58,-46.84,-33.46,-46.21,-50.95,-50.97
2022/10/19 23:49:25+0000,-35.65,-46.60,-33.09,-47.08,-50.53,-50.85
2022/10/19 23:50:17+0000,-35.00,-47.02,-33.85,-47.97,-48.60,-51.41
2022/10/19 23:51:22+0000,-35.23,-46.94,-33.58,-46.34,-49.10,-50.04
2022/10/19 23:52:14+0000,-36.00,-47.40,-33.91,-47.41,-48.92,-49.75
2022/10/19 23:53:06+0000,-35.87,-47.36,-32.87,-48.66,-48.81,-49.30
2022/10/19 23:53:58+0000,-34.72,-46.39,-33.75,-47.28,-48.00,-50.51
2022/10/19 23:54:50+0000,-34.84,-45.82,-33.01,-48.74,-48.94,-50.42
2022/10/19 23:55:42+0000,-35.43,-45.31,-33.45,-47.51,-49.70,-48.76
2022/10/19 23:56:34+0000,-34.69,-45.41,-33.54,-48.93,-49.05,-49.09
2022/10/19 23:57:26+0000,-35.91,-46.16,-33.29,-46.88,-49.30,-51.03
2022/10/19 23:58:19+0000,-34.48,-45.93,-33.63,-47.59,-48.40,-50.30
2022/10/19 23:59:11+0000,-34.68,-46.05,-33.45,-47.22,-50.98,-47.92
2022/10/20 00:00:03+0000,-35.45,-45.35,-33.24,-46.32,-51.35,-50.45
2022/10/20 00:01:05+0000,-35.18,-45.22,-33.78,-47.62,-49.11,-50.30
2022/10/20 00:01:57+0000,-34.82,-45.44,-33.62,-45.52,-48.39,-49.34
2022/10/20 00:02:49+0000,-35.29,-46.57,-34.04,-46.65,-49.13,-51.51
2022/10/20 00:03:41+0000,-35.33,-46.21,-34.09,-46.90,-49.20,-50.43
2022/10/20 00:04:33+0000,-35.18,-46.42,-33.58,-47.22,-52.01,-50.77
2022/10/20 00:05:25+0000,-35.97,-45.66,-32.83,-46.40,-52.69,-51.46
2022/10/20 00:06:17+0000,-35.24,-44.93,-33.34,-48.12,-53.17,-50.94
2022/10/20 00:07:09+0000,-35.63,-46.15,-33.37,-47.87,-52.58,-50.76
2022/10/20 00:08:02+0000,-34.70,-46.83,-33.37,-46.88,-52.61,-50.86
2022/10/20 00:08:54+0000,-35.33,-46.87,-33.64,-45.29,-51.77,-49.46
2022/10/20 00:09:46+0000,-35.73,-46.43,-33.80,-47.33,-49.60,-49.84
2022/10/20 00:10:38+0000,-35.34,-44.21,-33.71,-47.75,-49.12,-49.68
2022/10/20 00:11:39+0000,-35.55,-45.92,-33.30,-47.14,-49.15,-49.28
2022/10/20 00:12:31+0000,-35.42,-46.61,-33.92,-46.53,-48.81,-48.89
2022/10/20 00:13:23+0000,-34.99,-47.61,-33.74,-46.82,-48.84,-49.10
2022/10/20 00:14:15+0000,-35.44,-48.41,-33.58,-47.62,-48.49,-49.98
2022/10/20 00:15:08+0000,-35.42,-46.71,-33.25,-47.09,-48.02,-50.36
2022/10/20 00:16:00+0000,-35.57,-45.70,-33.45,-46.77,-48.36,-51.62
2022/10/20 00:16:52+0000,-35.13,-47.63,-34.22,-47.08,-49.13,-50.15
2022/10/20 00:17:44+0000,-36.10,-45.02,-33.18,-46.96,-49.15,-49.13
2022/10/20 00:18:36+0000,-35.27,-46.26,-33.46,-47.80,-48.30,-50.28
2022/10/20 00:19:28+0000,-35.70,-46.88,-33.94,-46.21,-51.54,-50.26
2022/10/20 00:20:20+0000,-36.44,-45.84,-33.71,-47.45,-51.57,-50.78
2022/10/20 00:21:19+0000,-35.66,-45.58,-33.06,-47.99,-52.21,-51.63
2022/10/20 00:22:11+0000,-36.00,-45.39,-33.47,-47.18,-52.71,-50.59
2022/10/20 00:23:03+0000,-36.33,-45.86,-33.28,-48.19,-52.32,-50.40
2022/10/20 00:23:55+0000,-35.38,-47.09,-33.32,-47.27,-53.17,-50.51
2022/10/20 00:24:47+0000,-35.22,-46.52,-34.00,-47.74,-50.14,-49.88
2022/10/20 00:25:39+0000,-35.99,-46.52,-33.90,-48.46,-50.79,-50.22
2022/10/20 00:26:31+0000,-36.68,-47.32,-33.24,-46.99,-50.27,-50.34
2022/10/20 00:27:23+0000,-35.39,-47.29,-33.00,-47.12,-51.49,-49.16
2022/10/20 00:28:15+0000,-34.89,-45.36,-33.31,-48.18,-50.03,-49.67
2022/10/20 00:29:08+0000,-36.12,-46.43,-33.14,-47.45,-52.15,-50.58
2022/10/20 00:30:00+0000,-36.59,-47.51,-33.81,-46.84,-53.36,-51.01
2022/10/20 00:31:02+0000,-35.59,-47.97,-33.57,-46.92,-52.72,-50.92
2022/10/20 00:31:54+0000,-36.20,-47.20,-33.44,-47.77,-53.38,-50.82
2022/10/20 00:32:46+0000,-35.07,-43.72,-33.45,-48.01,-52.34,-51.58
2022/10/20 00:33:38+0000,-35.53,-47.53,-33.30,-47.77,-52.33,-51.17
2022/10/20 00:34:30+0000,-35.76,-47.42,-33.30,-48.17,-52.68,-51.53
2022/10/20 00:35:22+0000,-36.41,-46.75,-33.48,-47.35,-53.79,-51.43
2022/10/20 00:36:14+0000,-35.19,-44.24,-33.37,-48.67,-53.83,-51.43
2022/10/20 00:37:06+0000,-35.61,-46.99,-33.18,-49.09,-52.35,-50.29
2022/10/20 00:37:58+0000,-35.90,-46.79,-33.63,-48.34,-51.80,-51.68
2022/10/20 00:38:50+0000,-35.53,-40.21,-33.07,-48.86,-52.06,-52.53
2022/10/20 00:39:42+0000,-35.98,-41.32,-33.21,-48.63,-53.22,-51.88
2022/10/20 00:40:34+0000,-36.24,-46.47,-33.01,-48.74,-51.88,-51.99
2022/10/20 00:41:35+0000,-35.82,-45.58,-32.89,-49.48,-51.57,-51.41
2022/10/20 00:42:27+0000,-35.77,-46.39,-33.44,-48.77,-52.77,-51.34
2022/10/20 00:43:19+0000,-35.22,-45.46,-33.45,-49.42,-53.20,-51.70
2022/10/20 00:44:11+0000,-34.73,-47.30,-33.39,-48.39,-53.51,-52.20
2022/10/20 00:45:03+0000,-36.24,-47.39,-33.08,-47.90,-52.75,-51.77
2022/10/20 00:45:55+0000,-35.60,-46.35,-33.30,-47.70,-52.10,-51.06
2022/10/20 00:46:47+0000,-34.08,-44.48,-33.02,-49.39,-53.44,-51.22
2022/10/20 00:47:39+0000,-34.63,-44.79,-32.69,-48.71,-52.62,-51.68
2022/10/20 00:48:31+0000,-36.13,-46.38,-32.72,-48.58,-51.34,-55.23
2022/10/20 00:49:23+0000,-33.95,-47.61,-33.11,-48.28,-53.45,-55.39
2022/10/20 00:50:15+0000,-34.85,-45.45,-33.05,-48.82,-53.49,-55.42
2022/10/20 00:51:16+0000,-35.08,-45.84,-32.66,-49.33,-54.19,-55.16
2022/10/20 00:52:08+0000,-36.22,-48.80,-33.42,-49.08,-53.51,-55.77
2022/10/20 00:53:00+0000,-34.92,-45.51,-32.93,-48.18,-54.46,-55.52
2022/10/20 00:53:52+0000,-32.62,-49.11,-32.74,-48.29,-53.90,-55.85
2022/10/20 00:54:44+0000,-34.97,-47.50,-33.63,-49.70,-53.44,-54.97
2022/10/20 00:55:36+0000,-35.34,-49.79,-33.14,-49.40,-53.82,-55.38
2022/10/20 00:56:28+0000,-34.15,-47.80,-32.53,-49.03,-54.82,-54.90
2022/10/20 00:57:21+0000,-34.46,-47.31,-32.50,-50.73,-55.03,-55.86
2022/10/20 00:58:13+0000,-36.12,-47.76,-33.09,-49.34,-54.13,-55.76
2022/10/20 00:59:05+0000,-35.18,-46.58,-33.56,-49.86,-54.36,-56.18
2022/10/20 00:59:57+0000,-34.81,-46.23,-32.66,-47.47,-55.19,-55.39
2022/10/20 01:00:49+0000,-34.25,-46.31,-33.28,-50.10,-51.87,-55.55
2022/10/20 01:01:49+0000,-34.31,-43.87,-32.93,-50.63,-53.30,-55.54
2022/10/20 01:02:41+0000,-36.34,-46.69,-32.72,-49.27,-54.33,-55.48
2022/10/20 01:03:33+0000,-35.50,-46.35,-32.69,-50.91,-54.10,-55.56
2022/10/20 01:04:25+0000,-34.78,-45.43,-32.70,-48.25,-54.85,-56.12
2022/10/20 01:05:17+0000,-34.96,-43.66,-32.74,-49.21,-45.57,-51.78
2022/10/20 01:06:09+0000,-36.28,-45.26,-32.88,-48.96,-53.41,-52.00
2022/10/20 01:07:01+0000,-36.17,-45.83,-33.26,-48.51,-53.03,-50.60
2022/10/20 01:07:53+0000,-35.35,-46.51,-33.49,-48.65,-53.21,-52.02
2022/10/20 01:08:45+0000,-35.95,-47.29,-33.12,-48.92,-53.77,-51.00
2022/10/20 01:09:37+0000,-36.41,-46.88,-32.97,-48.78,-53.72,-51.00
2022/10/20 01:10:29+0000,-35.77,-47.21,-33.06,-46.99,-53.14,-51.22
2022/10/20 01:11:33+0000,-35.51,-47.22,-33.42,-50.72,-52.50,-50.90
2022/10/20 01:12:25+0000,-35.06,-46.16,-33.40,-48.98,-53.62,-51.12
2022/10/20 01:13:17+0000,-35.03,-46.75,-33.17,-49.22,-53.09,-51.74
2022/10/20 01:14:09+0000,-35.49,-46.43,-32.27,-49.79,-52.67,-51.54
2022/10/20 01:15:01+0000,-36.20,-47.03,-33.50,-48.36,-52.86,-52.28
2022/10/20 01:15:53+0000,-35.14,-46.68,-33.65,-46.63,-52.96,-52.89
2022/10/20 01:16:46+0000,-35.28,-46.63,-32.31,-50.46,-53.39,-51.18
2022/10/20 01:17:38+0000,-35.51,-46.82,-32.24,-48.84,-52.11,-51.62
2022/10/20 01:18:30+0000,-35.43,-46.80,-33.30,-48.92,-53.07,-51.89
2022/10/20 01:19:22+0000,-35.47,-46.15,-33.17,-48.55,-52.73,-51.50
2022/10/20 01:20:14+0000,-35.85,-45.36,-32.53,-49.27,-52.45,-52.04
2022/10/20 01:21:14+0000,-35.89,-44.61,-32.88,-47.75,-52.43,-51.93
2022/10/20 01:22:06+0000,-35.92,-46.25,-33.07,-48.07,-50.54,-51.70
2022/10/20 01:22:58+0000,-34.00,-44.03,-34.21,-40.16,-51.53,-51.84
2022/10/20 01:23:50+0000,-36.00,-46.15,-33.26,-41.11,-51.71,-51.84
2022/10/20 01:24:42+0000,-35.47,-45.18,-33.43,-40.65,-51.92,-51.78
2022/10/20 01:25:34+0000,-35.55,-42.85,-33.24,-41.52,-51.28,-51.39
2022/10/20 01:26:26+0000,-34.69,-44.86,-33.11,-40.29,-51.78,-51.78
2022/10/20 01:27:18+0000,-35.92,-44.03,-32.81,-40.58,-51.09,-51.71
2022/10/20 01:28:10+0000,-35.28,-45.44,-33.85,-40.88,-50.66,-52.16
2022/10/20 01:29:02+0000,-35.49,-44.95,-33.87,-40.12,-51.44,-51.86
2022/10/20 01:29:54+0000,-34.54,-45.32,-33.34,-40.33,-50.99,-51.84
2022/10/20 01:30:46+0000,-34.84,-44.88,-33.76,-40.31,-50.88,-51.79
2022/10/20 01:31:46+0000,-35.14,-42.28,-33.90,-39.76,-50.59,-52.23
2022/10/20 01:32:38+0000,-34.95,-42.54,-33.31,-38.76,-50.64,-51.81
2022/10/20 01:33:30+0000,-34.18,-46.92,-32.69,-38.32,-50.39,-51.06
2022/10/20 01:34:22+0000,-34.38,-45.20,-32.89,-37.58,-50.30,-53.61
2022/10/20 01:35:14+0000,-33.63,-43.47,-33.35,-38.58,-50.34,-53.46
2022/10/20 01:36:06+0000,-33.97,-46.58,-33.20,-38.00,-50.12,-52.51
2022/10/20 01:36:58+0000,-34.36,-45.09,-33.80,-38.48,-50.71,-52.11
2022/10/20 01:37:50+0000,-34.30,-43.73,-32.90,-38.23,-49.70,-52.50
2022/10/20 01:38:42+0000,-34.25,-44.46,-33.47,-37.59,-49.92,-52.56
2022/10/20 01:39:34+0000,-35.06,-44.62,-33.34,-37.81,-49.65,-52.40
2022/10/20 01:40:26+0000,-33.65,-43.34,-33.65,-37.45,-49.69,-52.69
2022/10/20 01:41:27+0000,-34.75,-44.48,-33.38,-36.56,-49.82,-52.36
2022/10/20 01:42:19+0000,-34.43,-43.11,-33.70,-37.31,-49.31,-52.57
2022/10/20 01:43:11+0000,-34.62,-43.72,-32.86,-36.64,-49.15,-51.96
2022/10/20 01:44:03+0000,-34.90,-43.22,-33.27,-37.31,-50.15,-51.80
2022/10/20 01:44:55+0000,-34.93,-45.41,-33.39,-38.38,-48.97,-51.99
2022/10/20 01:45:47+0000,-34.01,-43.96,-33.20,-38.64,-49.38,-52.60
2022/10/20 01:46:39+0000,-34.86,-44.38,-33.58,-38.66,-49.65,-51.94
2022/10/20 01:47:31+0000,-34.60,-44.72,-33.28,-38.21,-49.55,-51.99
2022/10/20 01:48:23+0000,-33.79,-44.83,-33.78,-37.44,-49.92,-51.90
2022/10/20 01:49:15+0000,-34.09,-44.85,-34.01,-37.57,-49.58,-51.49
2022/10/20 01:50:08+0000,-34.71,-45.32,-33.49,-37.47,-49.16,-52.01
2022/10/20 01:51:07+0000,-34.80,-44.99,-32.97,-37.91,-48.26,-52.03
2022/10/20 01:51:59+0000,-34.96,-43.75,-33.56,-36.80,-49.43,-51.62
2022/10/20 01:52:51+0000,-33.76,-44.52,-33.25,-36.99,-49.46,-53.52
2022/10/20 01:53:43+0000,-34.31,-44.50,-33.94,-38.26,-49.07,-53.30
2022/10/20 01:54:35+0000,-35.00,-44.56,-32.92,-37.63,-49.15,-53.23
2022/10/20 01:55:27+0000,-34.38,-44.10,-33.28,-37.23,-49.33,-53.34
2022/10/20 01:56:19+0000,-33.89,-44.58,-33.71,-36.90,-49.84,-53.19
2022/10/20 01:57:11+0000,-34.02,-44.11,-33.19,-37.82,-49.91,-52.89
2022/10/20 01:58:04+0000,-34.45,-44.37,-33.13,-36.23,-48.95,-52.81
2022/10/20 01:58:56+0000,-32.89,-43.89,-32.56,-37.26,-50.26,-53.36
2022/10/20 01:59:48+0000,-34.17,-44.88,-33.47,-37.42,-49.36,-53.34
2022/10/20 02:00:40+0000,-33.87,-44.29,-33.13,-37.48,-49.74,-53.39
2022/10/20 02:01:49+0000,-34.00,-44.51,-33.32,-37.02,-49.86,-52.75
2022/10/20 02:02:41+0000,-34.26,-43.53,-33.53,-37.56,-49.90,-53.45
2022/10/20 02:03:33+0000,-34.26,-44.32,-32.78,-37.04,-49.84,-53.88
2022/10/20 02:04:25+0000,-34.30,-43.44,-33.11,-37.35,-49.19,-53.81
2022/10/20 02:05:17+0000,-33.35,-44.81,-32.63,-37.05,-49.10,-53.32
2022/10/20 02:06:09+0000,-33.93,-44.85,-33.12,-37.74,-49.45,-53.66
2022/10/20 02:07:01+0000,-33.66,-43.74,-33.04,-36.74,-49.74,-53.58
2022/10/20 02:07:53+0000,-33.37,-43.78,-33.46,-36.59,-50.79,-53.94
2022/10/20 02:08:45+0000,-33.72,-44.17,-32.92,-37.22,-49.06,-53.95
2022/10/20 02:09:37+0000,-33.69,-45.08,-33.02,-37.90,-49.35,-53.65
2022/10/20 02:10:30+0000,-34.17,-44.17,-33.21,-37.07,-48.60,-53.49
2022/10/20 02:11:28+0000,-34.31,-42.76,-33.64,-36.89,-49.40,-53.32
2022/10/20 02:12:20+0000,-33.82,-45.40,-33.21,-37.33,-48.70,-53.63
2022/10/20 02:13:12+0000,-34.52,-44.82,-33.02,-36.83,-49.71,-52.72
2022/10/20 02:14:04+0000,-33.31,-43.70,-33.36,-37.56,-48.90,-52.98
2022/10/20 02:14:56+0000,-32.86,-43.23,-33.84,-37.49,-49.61,-53.42
2022/10/20 02:15:48+0000,-33.70,-44.67,-33.21,-38.66,-50.17,-53.84
2022/10/20 02:16:40+0000,-33.85,-46.02,-32.83,-37.51,-48.76,-53.50
2022/10/20 02:17:32+0000,-34.26,-42.41,-33.64,-39.23,-48.89,-53.61
2022/10/20 02:18:24+0000,-34.07,-44.13,-33.31,-36.81,-49.56,-53.72
2022/10/20 02:19:17+0000,-33.12,-44.43,-32.93,-37.45,-49.61,-53.80
2022/10/20 02:20:09+0000,-33.54,-44.44,-33.14,-37.49,-49.65,-53.26
2022/10/20 02:21:08+0000,-33.61,-44.25,-33.18,-37.99,-49.55,-53.38
2022/10/20 02:22:00+0000,-33.80,-43.06,-33.34,-35.78,-49.03,-53.18
2022/10/20 02:22:52+0000,-33.18,-43.90,-33.92,-35.69,-49.88,-53.33
2022/10/20 02:23:44+0000,-34.14,-44.17,-33.11,-36.85,-49.54,-54.45
2022/10/20 02:24:36+0000,-33.14,-45.53,-32.87,-38.35,-49.77,-54.33
2022/10/20 02:25:28+0000,-33.94,-42.38,-33.27,-38.25,-50.24,-54.77
2022/10/20 02:26:20+0000,-33.41,-45.39,-32.95,-37.37,-50.01,-54.59
2022/10/20 02:27:12+0000,-33.51,-44.95,-33.33,-37.73,-50.30,-54.51
2022/10/20 02:28:04+0000,-33.97,-43.13,-33.32,-36.82,-49.84,-54.45
2022/10/20 02:28:56+0000,-32.88,-42.37,-32.90,-37.17,-49.86,-54.10
2022/10/20 02:29:49+0000,-33.56,-45.83,-33.39,-38.01,-48.69,-54.34
2022/10/20 02:30:41+0000,-34.76,-45.51,-33.08,-36.82,-48.80,-52.15
2022/10/20 02:31:40+0000,-33.99,-45.31,-33.24,-36.40,-48.74,-52.03
2022/10/20 02:32:32+0000,-34.36,-42.23,-32.99,-36.57,-48.76,-53.58
2022/10/20 02:33:24+0000,-33.31,-43.65,-33.12,-38.11,-48.79,-53.86
2022/10/20 02:34:16+0000,-33.12,-43.78,-32.54,-38.15,-48.92,-53.48
2022/10/20 02:35:08+0000,-34.32,-43.70,-33.21,-38.65,-49.60,-53.77
2022/10/20 02:36:00+0000,-34.80,-43.73,-32.90,-37.46,-48.52,-53.73
2022/10/20 02:36:52+0000,-33.76,-41.12,-33.48,-37.68,-49.02,-53.16
2022/10/20 02:37:44+0000,-34.66,-44.16,-33.61,-38.60,-48.44,-53.88
2022/10/20 02:38:36+0000,-33.46,-45.83,-33.44,-36.89,-49.60,-53.46
2022/10/20 02:39:28+0000,-33.89,-41.01,-33.95,-36.32,-48.54,-54.28
2022/10/20 02:40:20+0000,-34.23,-46.32,-32.62,-37.62,-48.67,-54.34
2022/10/20 02:41:19+0000,-34.08,-44.16,-33.17,-37.42,-48.94,-54.26
2022/10/20 02:42:12+0000,-33.50,-44.81,-33.55,-39.09,-46.67,-50.38
2022/10/20 02:43:04+0000,-33.88,-43.38,-32.51,-38.26,-48.21,-49.92
2022/10/20 02:43:56+0000,-31.92,-43.57,-32.96,-37.06,-47.98,-51.37
2022/10/20 02:44:48+0000,-32.97,-43.24,-33.08,-38.56,-47.84,-50.67
2022/10/20 02:45:40+0000,-34.07,-44.18,-32.51,-37.67,-48.04,-51.29
2022/10/20 02:46:32+0000,-34.29,-44.29,-32.83,-38.05,-48.35,-50.74
2022/10/20 02:47:24+0000,-34.20,-44.49,-33.47,-38.86,-47.80,-50.62
2022/10/20 02:48:16+0000,-32.47,-44.77,-32.90,-36.48,-48.85,-50.94
2022/10/20 02:49:08+0000,-34.52,-43.70,-33.57,-37.72,-48.45,-50.72
2022/10/20 02:50:00+0000,-33.89,-44.90,-33.08,-38.98,-48.21,-51.08
2022/10/20 02:50:59+0000,-34.33,-44.35,-32.50,-38.76,-47.60,-51.47
2022/10/20 02:51:51+0000,-32.75,-46.12,-32.50,-36.31,-48.52,-51.37
2022/10/20 02:52:43+0000,-33.72,-44.20,-33.23,-35.53,-48.94,-51.09
2022/10/20 02:53:35+0000,-34.30,-45.92,-32.51,-36.39,-48.72,-51.48
2022/10/20 02:54:27+0000,-32.60,-45.42,-32.82,-36.98,-48.39,-51.23
2022/10/20 02:55:19+0000,-32.15,-45.90,-32.89,-37.26,-49.87,-51.24
2022/10/20 02:56:11+0000,-33.58,-45.25,-32.88,-36.27,-50.12,-51.53
2022/10/20 02:57:03+0000,-34.48,-45.23,-33.11,-34.97,-49.86,-50.82
2022/10/20 02:57:56+0000,-33.90,-45.23,-33.29,-35.37,-49.47,-51.18
2022/10/20 02:58:48+0000,-34.44,-45.92,-33.00,-35.32,-50.86,-51.80
2022/10/20 02:59:40+0000,-33.62,-45.53,-32.95,-36.90,-49.69,-51.69
2022/10/20 03:00:32+0000,-31.93,-44.68,-33.11,-37.04,-48.85,-51.70
2022/10/20 03:01:32+0000,-32.43,-44.45,-33.49,-35.74,-48.59,-51.08
2022/10/20 03:02:24+0000,-32.55,-44.17,-34.11,-36.10,-49.38,-51.50
2022/10/20 03:03:16+0000,-34.45,-44.36,-33.58,-37.32,-48.88,-51.93
2022/10/20 03:04:08+0000,-33.66,-43.98,-32.77,-36.80,-49.13,-51.13
2022/10/20 03:05:00+0000,-32.93,-45.21,-33.06,-37.38,-48.18,-51.72
2022/10/20 03:05:52+0000,-33.59,-44.71,-32.54,-37.19,-48.69,-52.04
2022/10/20 03:06:44+0000,-33.97,-44.68,-33.30,-36.85,-48.36,-51.38
2022/10/20 03:07:37+0000,-32.44,-46.10,-32.34,-36.43,-49.07,-53.14
2022/10/20 03:08:29+0000,-34.95,-44.79,-32.72,-36.66,-48.80,-53.43
2022/10/20 03:09:21+0000,-33.35,-46.41,-33.10,-36.75,-48.82,-53.57
2022/10/20 03:10:13+0000,-34.50,-43.90,-33.40,-36.45,-50.44,-53.38
2022/10/20 03:11:12+0000,-33.62,-43.56,-33.22,-36.32,-49.52,-52.91
2022/10/20 03:12:04+0000,-33.77,-44.91,-33.27,-36.78,-50.09,-53.47
2022/10/20 03:12:56+0000,-33.56,-45.73,-33.23,-36.74,-50.28,-53.64
2022/10/20 03:13:48+0000,-34.62,-42.76,-33.53,-36.65,-49.34,-54.03
2022/10/20 03:14:40+0000,-34.48,-43.29,-33.76,-36.90,-48.99,-52.92
2022/10/20 03:15:32+0000,-34.54,-44.54,-33.59,-35.90,-49.62,-53.84
2022/10/20 03:16:24+0000,-34.06,-44.49,-33.30,-36.30,-49.48,-52.90
2022/10/20 03:17:16+0000,-33.69,-45.03,-33.30,-35.73,-49.32,-50.93
2022/10/20 03:18:09+0000,-34.96,-44.83,-33.57,-35.73,-49.37,-51.39
2022/10/20 03:19:01+0000,-33.97,-44.20,-33.20,-36.89,-48.06,-51.18
2022/10/20 03:19:53+0000,-34.21,-45.47,-33.55,-36.32,-49.35,-52.20
2022/10/20 03:20:45+0000,-34.37,-44.12,-33.23,-37.21,-48.77,-51.85
2022/10/20 03:21:44+0000,-34.49,-45.10,-33.88,-37.01,-48.70,-51.92
2022/10/20 03:22:36+0000,-33.96,-46.14,-33.91,-37.33,-48.67,-52.20
2022/10/20 03:23:28+0000,-34.16,-43.82,-33.66,-37.26,-48.26,-51.73
2022/10/20 03:24:20+0000,-33.40,-45.85,-33.42,-37.42,-48.64,-52.65
2022/10/20 03:25:12+0000,-35.48,-45.13,-33.49,-36.30,-48.45,-52.49
2022/10/20 03:26:04+0000,-33.89,-45.38,-33.58,-37.06,-47.98,-52.12
2022/10/20 03:26:56+0000,-32.74,-45.21,-33.65,-36.77,-48.76,-52.47
2022/10/20 03:27:48+0000,-33.13,-44.53,-33.52,-36.79,-49.03,-52.48
2022/10/20 03:28:40+0000,-34.60,-44.18,-33.92,-37.03,-49.01,-52.39
2022/10/20 03:29:32+0000,-33.46,-44.42,-34.10,-36.54,-48.36,-51.77
2022/10/20 03:30:25+0000,-33.89,-44.96,-34.10,-37.56,-48.60,-52.18
2022/10/20 03:31:24+0000,-32.73,-45.01,-33.75,-36.53,-47.94,-52.53
2022/10/20 03:32:16+0000,-33.56,-44.31,-33.97,-36.85,-48.64,-52.40
2022/10/20 03:33:08+0000,-34.81,-45.97,-33.91,-37.64,-48.74,-52.36
2022/10/20 03:34:00+0000,-33.56,-44.87,-33.08,-37.32,-49.20,-51.80
2022/10/20 03:34:52+0000,-32.17,-46.57,-33.48,-35.91,-48.44,-51.36
2022/10/20 03:35:44+0000,-33.85,-45.64,-33.46,-37.12,-48.46,-52.56
2022/10/20 03:36:36+0000,-34.29,-46.05,-34.19,-37.09,-48.44,-52.74
2022/10/20 03:37:29+0000,-33.99,-43.20,-33.78,-36.65,-48.17,-52.41
2022/10/20 03:38:21+0000,-34.12,-46.18,-33.65,-36.62,-48.61,-52.42
2022/10/20 03:39:13+0000,-34.64,-45.39,-33.78,-37.25,-48.39,-52.41
2022/10/20 03:40:05+0000,-34.19,-43.90,-33.96,-37.58,-49.22,-52.66
2022/10/20 03:41:04+0000,-34.03,-44.36,-33.48,-36.58,-48.33,-51.93
2022/10/20 03:41:57+0000,-33.66,-44.89,-33.52,-36.71,-48.82,-52.13
2022/10/20 03:42:49+0000,-33.99,-46.21,-33.86,-36.07,-48.83,-52.79
2022/10/20 03:43:41+0000,-34.39,-45.28,-33.15,-36.37,-48.47,-52.14
2022/10/20 03:44:33+0000,-35.40,-43.53,-33.93,-36.43,-48.54,-52.16
2022/10/20 03:45:25+0000,-34.12,-44.94,-33.78,-37.10,-48.94,-51.64
2022/10/20 03:46:17+0000,-35.30,-44.15,-32.93,-36.06,-49.15,-51.97
2022/10/20 03:47:09+0000,-33.80,-45.69,-33.36,-37.18,-48.99,-53.75
2022/10/20 03:48:01+0000,-34.44,-44.90,-33.35,-35.95,-49.45,-53.52
2022/10/20 03:48:53+0000,-33.90,-47.36,-33.45,-36.41,-50.27,-53.95
2022/10/20 03:49:45+0000,-34.21,-44.83,-33.59,-37.08,-49.92,-54.57
2022/10/20 03:50:37+0000,-34.00,-45.75,-33.20,-36.42,-49.98,-53.92
2022/10/20 03:51:36+0000,-34.92,-45.68,-33.64,-36.45,-50.58,-52.45
2022/10/20 03:52:28+0000,-33.58,-45.24,-33.95,-37.17,-48.75,-51.39
2022/10/20 03:53:21+0000,-34.13,-44.08,-33.26,-36.53,-49.59,-52.91
2022/10/20 03:54:13+0000,-34.07,-44.24,-33.78,-36.35,-49.31,-53.12
2022/10/20 03:55:05+0000,-33.73,-44.44,-33.64,-35.95,-48.84,-53.05
2022/10/20 03:55:57+0000,-33.30,-44.54,-33.76,-35.89,-48.24,-53.37
2022/10/20 03:56:49+0000,-34.01,-45.50,-33.63,-36.40,-48.69,-52.59
2022/10/20 03:57:41+0000,-34.89,-44.01,-33.70,-36.11,-49.63,-53.31
2022/10/20 03:58:33+0000,-34.96,-44.70,-33.43,-36.81,-48.45,-53.80
2022/10/20 03:59:25+0000,-33.09,-44.44,-33.51,-37.34,-49.23,-52.48
2022/10/20 04:00:17+0000,-33.89,-45.06,-34.30,-36.30,-49.86,-53.17
2022/10/20 04:01:17+0000,-33.86,-43.85,-33.68,-36.16,-49.84,-53.12
2022/10/20 04:02:09+0000,-34.28,-44.77,-34.14,-36.76,-48.89,-52.82
2022/10/20 04:03:01+0000,-33.65,-43.63,-33.71,-36.44,-50.06,-53.03
2022/10/20 04:03:53+0000,-33.98,-45.14,-33.68,-36.37,-49.05,-52.75
2022/10/20 04:04:45+0000,-34.39,-45.06,-33.92,-36.44,-49.63,-52.95
2022/10/20 04:05:37+0000,-34.76,-45.11,-33.35,-35.62,-49.65,-52.74
2022/10/20 04:06:29+0000,-33.58,-45.14,-32.68,-35.65,-49.54,-52.13
2022/10/20 04:07:21+0000,-34.14,-46.07,-33.68,-36.69,-49.60,-52.59
2022/10/20 04:08:13+0000,-34.15,-44.36,-33.90,-36.99,-49.93,-53.61
2022/10/20 04:09:05+0000,-34.70,-46.68,-33.35,-35.91,-49.74,-52.65
2022/10/20 04:09:57+0000,-33.47,-45.26,-33.61,-36.74,-49.21,-52.44
2022/10/20 04:10:49+0000,-34.82,-43.89,-33.49,-36.00,-49.50,-53.92
2022/10/20 04:11:49+0000,-34.30,-45.31,-34.06,-35.92,-49.19,-54.10
2022/10/20 04:12:41+0000,-34.25,-44.03,-33.41,-36.16,-49.06,-53.72
2022/10/20 04:13:33+0000,-34.75,-44.86,-33.71,-36.11,-49.21,-54.06
2022/10/20 04:14:25+0000,-34.50,-45.43,-33.40,-36.67,-49.02,-54.08
2022/10/20 04:15:17+0000,-34.39,-44.29,-33.57,-37.06,-49.30,-53.98
2022/10/20 04:16:09+0000,-33.89,-44.91,-33.12,-37.03,-48.47,-50.99
2022/10/20 04:17:01+0000,-33.23,-46.18,-33.17,-36.29,-49.54,-52.75
2022/10/20 04:17:53+0000,-33.28,-45.58,-33.36,-35.86,-49.82,-53.39
2022/10/20 04:18:45+0000,-34.16,-44.62,-33.53,-35.78,-49.35,-52.59
2022/10/20 04:19:37+0000,-33.52,-45.28,-32.45,-35.76,-48.77,-54.11
2022/10/20 04:20:29+0000,-34.54,-44.76,-33.11,-35.65,-49.96,-54.34
2022/10/20 04:21:29+0000,-34.38,-45.08,-33.45,-36.38,-50.14,-54.20
2022/10/20 04:22:21+0000,-34.45,-46.56,-33.25,-37.42,-48.69,-54.39
2022/10/20 04:23:13+0000,-32.62,-44.66,-33.58,-36.18,-49.87,-54.08
2022/10/20 04:24:05+0000,-33.65,-45.13,-32.75,-35.57,-48.60,-54.08
2022/10/20 04:24:57+0000,-32.73,-45.35,-33.97,-36.05,-49.22,-54.56
2022/10/20 04:25:49+0000,-33.62,-44.39,-33.71,-36.08,-49.38,-54.13
2022/10/20 04:26:41+0000,-32.30,-44.90,-31.50,-36.14,-49.35,-54.53
2022/10/20 04:27:33+0000,-34.29,-45.28,-32.53,-36.18,-49.29,-55.02
2022/10/20 04:28:25+0000,-33.11,-45.74,-33.95,-37.45,-49.50,-54.21
2022/10/20 04:29:17+0000,-34.54,-45.45,-33.18,-35.96,-49.98,-54.22
2022/10/20 04:30:09+0000,-33.51,-45.45,-32.99,-36.36,-49.77,-54.36
2022/10/20 04:31:09+0000,-34.51,-45.61,-33.34,-37.55,-48.84,-54.29
2022/10/20 04:32:01+0000,-34.64,-46.42,-33.54,-36.21,-49.14,-54.23
2022/10/20 04:32:53+0000,-33.05,-45.67,-33.52,-36.20,-49.26,-54.00
2022/10/20 04:33:45+0000,-34.11,-43.85,-33.72,-37.10,-49.48,-54.27
2022/10/20 04:34:37+0000,-34.59,-47.42,-33.44,-36.31,-48.90,-53.93
2022/10/20 04:35:29+0000,-33.28,-46.42,-33.58,-36.75,-49.22,-54.00
2022/10/20 04:36:21+0000,-33.64,-46.30,-33.23,-36.22,-48.80,-53.94
2022/10/20 04:37:13+0000,-34.48,-45.69,-33.30,-35.44,-48.75,-53.45
2022/10/20 04:38:05+0000,-35.20,-45.32,-32.19,-35.78,-49.00,-53.97
2022/10/20 04:38:57+0000,-32.96,-45.83,-33.89,-36.09,-48.71,-54.19
2022/10/20 04:39:49+0000,-34.19,-45.40,-33.15,-36.22,-49.00,-54.18
2022/10/20 04:40:41+0000,-32.90,-46.08,-33.62,-49.71,-53.03,-55.58
2022/10/20 04:41:41+0000,-33.93,-45.71,-33.32,-50.21,-52.84,-55.12
2022/10/20 04:42:33+0000,-35.34,-46.76,-33.22,-50.55,-52.39,-55.62
2022/10/20 04:43:25+0000,-35.50,-47.32,-33.65,-50.00,-52.60,-55.03
2022/10/20 04:44:17+0000,-35.21,-46.57,-33.85,-50.40,-52.95,-54.88
2022/10/20 04:45:09+0000,-35.22,-46.27,-33.86,-52.00,-53.03,-54.90
2022/10/20 04:46:01+0000,-36.18,-47.67,-33.38,-50.82,-45.59,-47.32